Hovedside
METAR-TAF:

METAR-TAF

Lufthavner :

Storuman, Sverige

Storumans lufthavn

breddegrad: 64-57-39N, lengdegrad: 017-41-47E, høyde over havet: 279 m

Gjeldene værobservasjon

Denne rapporten ble laget for 16 minutter siden, klokken 10:20 UTC
Vind 5 kt fra Øst-nordøst, skiftende mellom Nord-nordøst og Øst
Temperatur 9°C
Luftfuktighet 93%
Trykk 988 hPa
Sikt 10 km eller mer
lett regn

METAR: ESUD 251020Z AUTO 06005KT 020V100 9999 -RA BKN009/// BKN013/// OVC017/// 09/08 Q0988

Tid: 12:36 (10:36 UTC)


TAF: fraværende

Værobservasjoner og værvarsel for over 4000 flyplasser (METAR- og TAF-rapporter).

Tilgjengelige stasjoner er representert av de røde og gule prikkene på kartet.

Hold musepekeren over prikken for å se navnet på stasjonen.

Klikk så for å se værobservasjoner og -varsler.

For å forandre kartet kan du klikke på den grønne knappen med svart kryss for å zoome inn, på den grønne knappen med strek for å zoome ut, eller på de grønne pilene for å se tilstøtende kart.


METAR-TAF: